[[{"header":{"parameterUnit":"m.s-1","parameterCategory":1,"la1":30.2992,"la2":30.254,"lo1":-89.0895,"lo2":-89.0443,"dy":0.0025,"dx":0.0025,"nx":19,"ny":19,"refTime":"2026-03-31T21:00:00:Z","depth":0,"parameterNumber":2,"parameterNumberName":"U-component_of_WINDS"},"data":[0,0,0,-4.1693,-4.1697,-4.1917,-4.1918,-4.2183,-4.2186,0,0,0,0,0,0,0,0,0,0,0,-4.1618,-4.1619,-4.1693,-4.1698,-4.1917,-4.1918,-4.2183,-4.2186,0,0,0,0,0,0,0,0,0,0,0,-4.1617,-4.1619,-4.162,-4.1699,-4.1917,-4.1918,-4.2182,-4.2022,0,0,0,0,0,0,0,0,0,0,-4.1812,-4.1732,-4.1618,-4.162,-4.17,-4.1917,-4.1919,-4.2015,-4.2032,-4.2077,0,-4.2113,0,-4.2153,-4.2202,-4.2203,0,0,0,-4.1706,-4.1717,-4.1786,-4.1621,-4.1702,-4.1917,-4.1821,-4.2025,-4.2045,-4.21,-4.2117,-4.2127,-4.2158,-4.2204,-4.2205,-4.2434,-4.2434,0,0,-4.1694,-4.1651,-4.1772,-4.1798,-4.1763,-4.1813,-4.1827,-4.2037,-4.2053,-4.2118,-4.2134,-4.2162,-4.2206,-4.2207,-4.2433,-4.2434,0,0,0,-4.1653,-4.1643,-4.1707,-4.1787,-4.1828,-4.182,-4.1836,-4.2044,-4.2068,-4.2137,-4.2165,-4.2207,-4.221,-4.2433,-4.2434,-4.2426,0,0,0,-4.1647,-4.1619,-4.1701,-4.1677,-4.1823,-4.1938,-4.1837,-4.2054,-4.2079,-4.2164,-4.2207,-4.2212,-4.2432,-4.2433,-4.2424,-4.2428,0,0,0,-4.1607,-4.1615,-4.1643,-4.1675,-4.1768,-4.1936,-4.1973,-4.206,-4.2096,-4.2203,-4.2213,-4.2431,-4.2433,-4.2423,-4.2426,-4.2475,0,0,0,-4.1552,-4.1633,-4.1642,-4.1744,-4.1765,-4.193,-4.1972,-4.2097,-4.2188,-4.2208,-4.2432,-4.2433,-4.2423,-4.2425,-4.2473,-4.2506,-4.2517,0,0,-4.1631,-4.1641,-4.1705,-4.1719,-4.1871,-4.19,-4.2052,-4.2175,-4.2225,-4.2362,-4.2368,-4.2425,-4.2426,-4.2475,-4.2594,-4.2602,0,0,0,-4.1715,-4.176,-4.181,-4.1895,-4.1992,-4.2075,-4.2181,-4.2227,-4.2345,-4.2286,-4.2458,-4.246,-4.2491,-4.2508,-4.2515,-4.2543,-4.244,-4.244,-4.244,-4.1764,-4.1823,-4.1932,-4.2018,-4.2101,-4.221,-4.2282,-4.2363,-4.2399,-4.2439,-4.2478,-4.2543,-4.2563,-4.2568,-4.2596,-4.2503,-4.2503,-4.2503,-4.2503,-4.1883,-4.1955,-4.2002,-4.2124,-4.2187,-4.2291,-4.24,-4.2422,-4.2528,-4.2518,-4.2548,-4.2529,-4.2575,-4.2603,-4.2503,-4.2503,-4.2503,-4.2503,-4.2503,-4.1919,-4.1963,-4.2019,-4.2149,-4.2243,-4.2329,-4.2429,-4.2484,-4.2535,-4.2565,-4.2612,-4.2613,-4.2618,-4.2584,-4.2585,-4.2585,-4.2585,-4.2585,-4.2585,-4.1932,-4.1996,-4.2073,-4.2184,-4.2247,-4.2336,-4.2448,-4.2512,-4.2596,-4.2628,-4.2628,-4.2659,-4.2569,-4.2544,-4.2589,-4.2588,-4.2588,-4.2588,-4.2587,-4.2026,-4.2014,-4.2132,-4.2195,-4.2331,-4.2421,-4.2491,-4.2615,-4.2676,-4.2723,-4.275,-4.2675,-4.2689,-4.2684,-4.2664,-4.2737,-4.2737,-4.2737,-4.2737,-4.2054,-4.2068,-4.2201,-4.2298,-4.2399,-4.2475,-4.2608,-4.2697,-4.2787,-4.2829,-4.2827,-4.2806,-4.2798,-4.2817,-4.2809,-4.279,-4.2895,-4.2895,-4.2895,-4.2114,-4.2141,-4.2242,-4.233,-4.2441,-4.2535,-4.2662,-4.2772,-4.2873,-4.2902,-4.2862,-4.2856,-4.2821,-4.2808,-4.2832,-4.2819,-4.2786,0,0]},{"header":{"parameterUnit":"m.s-1","parameterCategory":1,"la1":30.2992,"la2":30.254,"lo1":-89.0895,"lo2":-89.0443,"dy":0.0025,"dx":0.0025,"nx":19,"ny":19,"refTime":"2026-03-31T21:00:00:Z","depth":0,"parameterNumber":3,"parameterNumberName":"V-component_of_WINDS"},"data":[0,0,0,3.0111,3.0113,3.0192,3.0192,3.0278,3.0279,0,0,0,0,0,0,0,0,0,0,0,3.0079,3.0079,3.0111,3.0113,3.0192,3.0192,3.0278,3.0279,0,0,0,0,0,0,0,0,0,0,0,3.0079,3.0079,3.0079,3.0113,3.0191,3.0192,3.0278,3.0224,0,0,0,0,0,0,0,0,0,0,3.015,3.0111,3.0079,3.0079,3.0113,3.0191,3.0192,3.0221,3.0227,3.0237,0,3.0242,0,3.0262,3.0284,3.0284,0,0,0,3.0119,3.0106,3.0136,3.0079,3.0114,3.0191,3.0158,3.0225,3.0231,3.0244,3.0244,3.0247,3.0264,3.0284,3.0285,3.032,3.032,0,0,3.0115,3.0088,3.0131,3.0139,3.0126,3.0155,3.016,3.0229,3.0227,3.0244,3.025,3.0265,3.0285,3.0285,3.032,3.032,0,0,0,3.0098,3.0084,3.0113,3.0135,3.0151,3.0157,3.0163,3.0223,3.0235,3.0251,3.0266,3.0285,3.0286,3.0321,3.032,3.0288,0,0,0,3.0096,3.0075,3.0111,3.0095,3.0149,3.0188,3.0156,3.023,3.0239,3.0266,3.0285,3.0287,3.0321,3.032,3.029,3.0277,0,0,0,3.0077,3.0072,3.0081,3.0093,3.0126,3.0188,3.0203,3.0233,3.0248,3.0284,3.0287,3.0321,3.032,3.0291,3.0279,3.028,0,0,0,3.0048,3.0049,3.008,3.0088,3.0125,3.0167,3.0203,3.0236,3.0263,3.0286,3.0321,3.032,3.0291,3.028,3.0281,3.0276,3.0271,0,0,3.0034,3.0046,3.0053,3.0083,3.0113,3.0157,3.0183,3.0233,3.026,3.0299,3.03,3.0289,3.0279,3.028,3.0255,3.025,0,0,0,3.004,3.0044,3.0058,3.0084,3.0124,3.0157,3.0206,3.0226,3.026,3.0275,3.0291,3.0285,3.0287,3.0286,3.0283,3.0287,3.0319,3.0319,3.0319,2.9979,3.0018,3.0032,3.008,3.0105,3.0158,3.0182,3.0217,3.0245,3.0249,3.026,3.024,3.0238,3.0236,3.0239,3.0261,3.0261,3.026,3.026,2.9963,2.9977,3.0019,3.0048,3.0089,3.0114,3.0166,3.0186,3.0216,3.0234,3.0237,3.0253,3.023,3.0235,3.0258,3.0259,3.0259,3.0259,3.0259,2.9928,2.9942,2.9967,3.0011,3.0041,3.009,3.0118,3.0153,3.0186,3.019,3.0207,3.0208,3.0213,3.0196,3.0196,3.0196,3.0196,3.0196,3.0196,2.9882,2.9912,2.9931,2.9976,3.0,3.0035,3.0091,3.0115,3.0151,3.0175,3.0175,3.0204,3.0221,3.0225,3.0195,3.0195,3.0195,3.0195,3.0195,2.9851,2.9865,2.9895,2.9918,2.9977,3.0006,3.0052,3.0099,3.0124,3.0137,3.0167,3.0174,3.0188,3.0191,3.0194,3.0158,3.0158,3.0158,3.0158,2.9822,2.9834,2.9875,2.9911,2.995,2.9996,3.0031,3.0076,3.0125,3.0143,3.0154,3.0161,3.0163,3.0177,3.018,3.0183,3.0145,3.0145,3.0145,2.9806,2.9824,2.9846,2.9895,2.9945,2.9987,3.0021,3.0062,3.0119,3.0146,3.0159,3.0159,3.0172,3.0174,3.0198,3.0202,3.021,0,0]}]]